Regional Weather Roundup
Issued by NWS Columbia, SC

Home | Current Version | Previous Version | Text Only | Print | Product List | Glossary On
Versions: 1 2 3 4 5 6 7 8 9 10 11 12 13 14 15 16 17 18 19 20 21 22 23 24 25 26 27 28 29 30 31 32 33 34 35 36 37 38 39 40 41 42 43 44 45 46 47 48 49 50
000
ASUS42 KCAE 251010
RWRCAE
REGIONAL WEATHER ROUNDUP
NATIONAL WEATHER SERVICE COLUMBIA SC
500 AM EST SUN JAN 25 2015

NOTE: "FAIR" INDICATES FEW OR NO CLOUDS BELOW 12,000 FEET WITH NO
SIGNIFICANT WEATHER AND/OR OBSTRUCTIONS TO VISIBILITY.

NOT ALL STATIONS ARE QUALITY CONTROLLED BY THE NATIONAL
WEATHER SERVICE. USE DATA WITH CAUTION...ESPECIALLY
DEWPOINT OBSERVATIONS.

SCZ001>056-GAZ040-063>065-077-251100-
...UPSTATE SOUTH CAROLINA...

CITY           SKY/WX    TMP DP  RH WIND       PRES   REMARKS
ANDERSON       CLEAR     36  28  73 SW8       29.92R WCI  30
LIBERTY        SUNNY     30  28  92 MISG      29.89S
SPARTANBURG    CLEAR     34  28  80 W6        29.90R WCI  29
CLEMSON        CLEAR     39  26  59 W13       29.91S WCI  31
GREENVILLE     CLEAR     31  24  75 NW3       29.90R
GREENWOOD      CLEAR     34  27  75 SW8       29.93S WCI  27
GREER          CLEAR     33  26  75 SW6       29.89R WCI  28
ROCK HILL      CLEAR     28  24  85 SW3       29.89F
CHESTER        SUNNY     34  27  75 SW5       29.91R WCI  30
LAURENS        SUNNY     32  32 100 SW6       29.90F WCI  26


...CENTRAL SOUTH CAROLINA...

CITY           SKY/WX    TMP DP  RH WIND       PRES   REMARKS
COLUMBIA APT   CLEAR     32  29  88 S5        29.94R WCI  27
COLUMBIA OWENS CLEAR     35  30  82 CALM      29.95R
DARLINGTON     CLEAR     36  27  69 NW7       29.93S WCI  30
FLORENCE       CLEAR     36  29  75 W6        29.92R WCI  31
MCENTIRE ANGB  CLEAR     32  27  81 CALM      29.95R
ORANGEBURG     FAIR      33  28  81 CALM      29.95R
SUMTER SHAW    CLEAR     36  28  71 W8        29.92R WCI  30
NEWBERRY       SUNNY     34  28  80 SW6       29.94F WCI  29
AIKEN          FAIR      34  30  86 SW8       29.97S WCI  27
BARNWELL         N/A     34  30  86 CALM      29.96S
CAMDEN         FAIR      32  27  80 CALM      29.94R
LANCASTER      LGT RAIN  32  28  86 CALM      29.91F
WINNSBORO      SUNNY     34  30  86 W3        29.92S


...EASTERN AND COASTAL SOUTH CAROLINA...

CITY           SKY/WX    TMP DP  RH WIND       PRES   REMARKS
MYRTLE BEACH   CLEAR     39  30  70 W8        29.95R WCI  34
N MYRTLE BCH   CLEAR     40  32  73 NW5       29.92R
CONWAY         FAIR      32 N/A N/A CALM      29.94R HAZE
MARION         FAIR      32  32 100 CALM      29.93R
HARTSVILLE     FAIR      37  28  70 W3        29.92S
FLORENCE       CLEAR     36  29  75 W6        29.92R WCI  31
DARLINGTON     CLEAR     36  27  69 NW7       29.93S WCI  30
CHARLESTON APT CLEAR     39  30  70 W6        29.96R WCI  35
MOUNT PLEASANT LGT RAIN N/A N/A N/A W7        29.95R
BEAUFORT       CLEAR     41  30  65 W10       29.97S


...EASTERN GEORGIA...

CITY           SKY/WX    TMP DP  RH WIND       PRES   REMARKS
AUGUSTA BUSH F CLEAR     36  28  73 N5        29.96S WCI  32
AUGUSTA DANIEL CLEAR     41  29  62 NW7       29.95F
THOMSON        CLEAR     38  33  80 W3        29.99F
WASHINGTON     FAIR      41  36  81 W5        29.94F
CLAXTON        FAIR      32  32 100 CALM      30.01R
SYLVANIA       SUNNY     35  32  89 CALM      29.99R
STATESBORO     CLEAR     38  32  76 W5        29.98S WCI  35
SAVANNAH       CLEAR     36  30  79 W6        30.00R WCI  31


...SOUTHERN NORTH CAROLINA...

CITY           SKY/WX    TMP DP  RH WIND       PRES   REMARKS
CHARLOTTE      CLEAR     30  23  75 CALM      29.89S
MONROE         CLEAR     31  24  75 SW6       29.89S WCI  25
WADESBORO      SUNNY     27  25  91 CALM      29.91S
ROCKINGHAM       N/A     29  27  91 CALM      29.91R
RUTHERFORDTON  CLEAR     28  25  89 N3        29.89R
ASHEVILLE      CLEAR     30  24  78 S3        29.88R

$$


USA.gov is the U.S. government's official web portal to all federal, state and local government web resources and services.